| time (UTC) | temp C | wind direction | speed KPH | gust KPH | rain 1hr cm | rain 24hr cm | rain mn cm | humidity % | barometer mb |
| 20260504214330 | 15 | 16 | 22.5 | 0.0 | 0.00 | 0.00 | 0.00 | 38 | 1013.6 |
| 20260504213337 | 15 | 4 | 17.7 | 0.0 | 0.00 | 0.00 | 0.00 | 40 | 1013.6 |
| 20260504212321 | 15 | 1 | 22.5 | 0.0 | 0.00 | 0.00 | 0.00 | 40 | 1013.8 |
| 20260504211329 | 15 | 30 | 25.7 | 0.0 | 0.00 | 0.00 | 0.00 | 39 | 1013.8 |
| 20260504210337 | 15 | 5 | 24.1 | 0.0 | 0.00 | 0.00 | 0.00 | 41 | 1013.8 |
| 20260504205405 | 14 | 39 | 27.4 | 0.0 | 0.00 | 0.00 | 0.00 | 40 | 1014.5 |
| 20260504204329 | 14 | 9 | 25.7 | 0.0 | 0.00 | 0.00 | 0.00 | 41 | 1014.5 |
| 20260504203332 | 13 | 354 | 29.0 | 0.0 | 0.00 | 0.00 | 0.00 | 43 | 1014.5 |
| 20260504202336 | 13 | 8 | 29.0 | 0.0 | 0.00 | 0.00 | 0.00 | 43 | 1013.9 |
| 20260504201339 | 13 | 359 | 30.6 | 0.0 | 0.00 | 0.00 | 0.00 | 42 | 1014.4 |
| 20260504200327 | 14 | 3 | 27.4 | 0.0 | 0.00 | 0.00 | 0.00 | 42 | 1014.4 |
| 20260504195330 | 13 | 14 | 27.4 | 0.0 | 0.00 | 0.00 | 0.00 | 42 | 1014.6 |
| 20260504194334 | 14 | 28 | 22.5 | 0.0 | 0.00 | 0.00 | 0.00 | 41 | 1014.5 |
| 20260504193342 | 14 | 29 | 19.3 | 0.0 | 0.00 | 0.00 | 0.00 | 41 | 1014.6 |
| 20260504192330 | 14 | 34 | 20.9 | 0.0 | 0.00 | 0.00 | 0.00 | 42 | 1014.6 |
| 20260504191334 | 15 | 35 | 16.1 | 0.0 | 0.00 | 0.00 | 0.00 | 40 | 1014.3 |
| 20260504190341 | 15 | 349 | 12.9 | 0.0 | 0.00 | 0.00 | 0.00 | 42 | 1014.2 |
| 20260504185345 | 14 | 21 | 14.5 | 0.0 | 0.00 | 0.00 | 0.00 | 42 | 1014.0 |
| 20260504184333 | 13 | 346 | 14.5 | 0.0 | 0.00 | 0.00 | 0.00 | 42 | 1014.0 |
| 20260504183338 | 14 | 32 | 12.9 | 0.0 | 0.00 | 0.00 | 0.00 | 43 | 1014.1 |
| 20260504182345 | 13 | 42 | 14.5 | 0.0 | 0.00 | 0.00 | 0.00 | 43 | 1014.1 |
| 20260504181328 | 13 | 345 | 9.7 | 0.0 | 0.00 | 0.00 | 0.00 | 44 | 1014.1 |
| 20260504180336 | 13 | 340 | 11.3 | 0.0 | 0.00 | 0.00 | 0.00 | 43 | 1013.4 |
| 20260504175344 | 13 | 35 | 14.5 | 0.0 | 0.00 | 0.00 | 0.00 | 42 | 1014.4 |
| 20260504174328 | 13 | 357 | 12.9 | 0.0 | 0.00 | 0.00 | 0.00 | 43 | 1014.4 |
| 20260504173333 | 13 | 332 | 16.1 | 0.0 | 0.00 | 0.00 | 0.00 | 44 | 1014.5 |
| 20260504172341 | 13 | 30 | 12.9 | 0.0 | 0.00 | 0.00 | 0.00 | 44 | 1014.5 |
| 20260504171325 | 13 | 23 | 9.7 | 0.0 | 0.00 | 0.00 | 0.00 | 45 | 1014.7 |
| 20260504170328 | 13 | 332 | 14.5 | 0.0 | 0.00 | 0.00 | 0.00 | 46 | 1014.8 |
| 20260504160340 | 12 | 12 | 19.3 | 0.0 | 0.00 | 0.00 | 0.00 | 47 | 1015.4 |
| 20260504150328 | 11 | 107 | 6.4 | 0.0 | 0.00 | 0.00 | 0.00 | 47 | 1015.6 |
| 20260504140340 | 10 | 86 | 16.1 | 0.0 | 0.00 | 0.00 | 0.00 | 50 | 1013.2 |
| 20260504130334 | 7 | 311 | 19.3 | 0.0 | 0.00 | 0.00 | 0.00 | 58 | 1015.1 |
| 20260504110348 | 10 | 18 | 32.2 | 0.0 | 0.00 | 0.00 | 0.00 | 48 | 1013.1 |
| 20260504100338 | 6 | 34 | 8.0 | 0.0 | 0.00 | 0.00 | 0.00 | 69 | 1012.0 |
| 20260504081337 | 6 | 138 | 9.7 | 0.0 | 0.00 | 0.00 | 0.00 | 70 | 1011.2 |
| 20260504080341 | 5 | 176 | 8.0 | 0.0 | 0.00 | 0.00 | 0.00 | 69 | 1010.9 |
| 20260504070327 | 7 | 63 | 3.2 | 0.0 | 0.00 | 0.00 | 0.00 | 61 | 1011.5 |
| 20260504050337 | 11 | 269 | 6.4 | 0.0 | 0.00 | 0.00 | 0.00 | 49 | 1011.4 |
| 20260504045400 | 11 | 257 | 6.4 | 0.0 | 0.00 | 0.00 | 0.00 | 49 | 1010.5 |
| 20260504044326 | 12 | 254 | 6.4 | 0.0 | 0.00 | 0.00 | 0.00 | 47 | 1010.4 |
| 20260504043331 | 12 | 229 | 8.0 | 0.0 | 0.00 | 0.00 | 0.00 | 44 | 1010.9 |
| 20260504042335 | 13 | 266 | 9.7 | 0.0 | 0.00 | 0.00 | 0.00 | 45 | 1010.8 |
| 20260504041339 | 13 | 264 | 9.7 | 0.0 | 0.00 | 0.00 | 0.00 | 44 | 1010.8 |
| 20260504040327 | 11 | 275 | 4.8 | 0.0 | 0.00 | 0.00 | 0.00 | 48 | 1010.9 |
| 20260504035351 | 12 | 196 | 4.8 | 0.0 | 0.00 | 0.00 | 0.00 | 47 | 1010.4 |
| 20260504034335 | 12 | 176 | 8.0 | 0.0 | 0.00 | 0.00 | 0.00 | 48 | 1010.2 |
| 20260504033339 | 12 | 181 | 9.7 | 0.0 | 0.00 | 0.00 | 0.00 | 48 | 1010.1 |
| 20260504032326 | 12 | 181 | 4.8 | 0.0 | 0.00 | 0.00 | 0.00 | 46 | 1010.0 |
| 20260504031353 | 13 | 200 | 3.2 | 0.0 | 0.00 | 0.00 | 0.00 | 45 | 1009.6 |
| 20260504030336 | 13 | 200 | 4.8 | 0.0 | 0.00 | 0.00 | 0.00 | 44 | 1010.4 |
| 20260504025339 | 16 | 194 | 1.6 | 0.0 | 0.00 | 0.00 | 0.00 | 38 | 1009.7 |
| 20260504024328 | 18 | 37 | 3.2 | 0.0 | 0.00 | 0.00 | 0.00 | 33 | 1009.5 |
| 20260504023332 | 19 | 30 | 6.4 | 0.0 | 0.00 | 0.00 | 0.00 | 32 | 1009.5 |
| 20260504022336 | 20 | 24 | 6.4 | 0.0 | 0.00 | 0.00 | 0.00 | 30 | 1009.3 |
| 20260504021341 | 21 | 30 | 6.4 | 0.0 | 0.00 | 0.00 | 0.00 | 29 | 1009.7 |
| 20260504020329 | 21 | 16 | 6.4 | 0.0 | 0.00 | 0.00 | 0.00 | 28 | 1010.6 |
| 20260504015354 | 21 | 26 | 8.0 | 0.0 | 0.00 | 0.00 | 0.00 | 27 | 1009.1 |
| 20260504014338 | 22 | 21 | 9.7 | 0.0 | 0.00 | 0.00 | 0.00 | 27 | 1009.5 |
| 20260504013403 | 22 | 27 | 11.3 | 0.0 | 0.00 | 0.00 | 0.00 | 26 | 1009.6 |
| 20260504012346 | 22 | 7 | 16.1 | 0.0 | 0.00 | 0.00 | 0.00 | 26 | 1009.6 |
| 20260504011334 | 22 | 16 | 16.1 | 0.0 | 0.00 | 0.00 | 0.00 | 26 | 1009.6 |
| 20260504010338 | 23 | 17 | 14.5 | 0.0 | 0.00 | 0.00 | 0.00 | 24 | 1010.5 |
| 20260504005327 | 23 | 9 | 16.1 | 0.0 | 0.00 | 0.00 | 0.00 | 24 | 1009.7 |
| 20260504004330 | 23 | 38 | 17.7 | 0.0 | 0.00 | 0.00 | 0.00 | 23 | 1009.4 |
| 20260504003354 | 23 | 333 | 8.0 | 0.0 | 0.00 | 0.00 | 0.00 | 23 | 1009.5 |
| 20260504002341 | 23 | 11 | 9.7 | 0.0 | 0.00 | 0.00 | 0.00 | 22 | 1009.9 |
| 20260504001326 | 22 | 269 | 14.5 | 0.0 | 0.00 | 0.00 | 0.00 | 24 | 1009.9 |
| 20260504000334 | 22 | 263 | 12.9 | 0.0 | 0.00 | 0.00 | 0.00 | 26 | 1009.9 |
| 20260503235338 | 23 | 260 | 11.3 | 0.0 | 0.00 | 0.00 | 0.00 | 23 | 1010.1 |
| 20260503234327 | 22 | 241 | 11.3 | 0.0 | 0.00 | 0.00 | 0.00 | 26 | 1009.6 |
| 20260503233331 | 23 | 242 | 12.9 | 0.0 | 0.00 | 0.00 | 0.00 | 24 | 1010.3 |
| 20260503232355 | 23 | 233 | 8.0 | 0.0 | 0.00 | 0.00 | 0.00 | 23 | 1010.3 |
| 20260503231337 | 23 | 205 | 9.7 | 0.0 | 0.00 | 0.00 | 0.00 | 23 | 1010.4 |
| 20260503230348 | 23 | 218 | 4.8 | 0.0 | 0.00 | 0.00 | 0.00 | 23 | 1010.6 |
| 20260503225330 | 23 | 71 | 8.0 | 0.0 | 0.00 | 0.00 | 0.00 | 24 | 1010.5 |
| 20260503224354 | 23 | 266 | 8.0 | 0.0 | 0.00 | 0.00 | 0.00 | 26 | 1010.5 |
| 20260503223337 | 22 | 291 | 8.0 | 0.0 | 0.00 | 0.00 | 0.00 | 28 | 1011.0 |
| 20260503222326 | 23 | 304 | 9.7 | 0.0 | 0.00 | 0.00 | 0.00 | 25 | 1010.9 |
| 20260503221332 | 23 | 318 | 9.7 | 0.0 | 0.00 | 0.00 | 0.00 | 25 | 1011.0 |
| 20260503220337 | 23 | 286 | 6.4 | 0.0 | 0.00 | 0.00 | 0.00 | 24 | 1011.3 |
| 20260503215340 | 23 | 283 | 19.3 | 0.0 | 0.00 | 0.00 | 0.00 | 27 | 1011.7 |